Home   Weather   Coquitlam   Past weeks

Flag for Canada Past Weather in Coquitlam, British Columbia, Canada — Yesterday and Last 2 Weeks

Now
34 °F

Chilly.


Feels Like: 31 °F
Forecast: 19 / 34 °F
Wind: 3 mph from Northeast

Location: P. Meadows Coastal Station

Current Time: Dec 6, 2016 at 4:13:38 am

Latest Report: Dec 6, 2016 at 3:00 am


Visibility: N/A

Pressure: 30.11 "Hg

Humidity: 68%

Dew Point: 24 °F

Location of CoquitlamLocation

Past Weather in Coquitlam — Graph

°F

Coquitlam Temperature Yesterday

Maximum temperature yesterday: 36 °F (at 12:00 pm)
Minimum temperature yesterday: 30 °F (at 12:00 am)
Average temperature yesterday: 34 °F

High & Low Weather Summary for the Past Weeks

 TemperatureHumidityPressure
High54 °F (Nov 21, 12:00 pm)100% (Nov 27, 1:00 pm)30.34 "Hg (Nov 27, 1:00 pm)
Low30 °F (Dec 5, 12:00 am)63% (Nov 21, 3:00 pm)29.42 "Hg (Nov 27, 9:00 pm)
Average42 °F89%29.93 "Hg
* Reported Nov 21 3:00 am — Dec 6 3:00 am, Coquitlam, Weather by CustomWeather, © 2016

Note: Actual official high and low records may vary slightly from our data, if they occured in-between our weather recording intervals... More about our weather records

Advertising

Coquitlam Weather History for the Previous 24 Hours

Scroll right to see more
 ConditionsComfort  
Time TempWeatherWind HumidityBarometerVisibility
3:00 am
Tue, Dec 6
34 °FChilly.3 mph68%30.11 "HgN/A
2:00 am34 °FChilly.5 mph72%30.09 "HgN/A
1:00 am32 °FChilly.3 mph89%30.08 "HgN/A
12:00 am31 °FChilly.1 mph96%30.08 "HgN/A
11:00 pm
Mon, Dec 5
31 °FChilly.No wind96%30.07 "HgN/A
10:00 pm33 °FChilly.No wind95%30.06 "HgN/A
9:00 pm34 °FChilly.1 mph89%30.06 "HgN/A
8:00 pm33 °FChilly.1 mph100%30.04 "HgN/A
7:00 pm35 °FChilly.No wind94%30.04 "HgN/A
6:00 pm35 °FChilly.2 mph95%30.04 "HgN/A
5:00 pm35 °FChilly.1 mph95%30.03 "HgN/A
4:00 pm35 °FChilly.6 mph94%30.03 "HgN/A
3:00 pm34 °FChilly.3 mph95%30.03 "HgN/A
2:00 pm33 °FChilly.3 mph95%30.03 "HgN/A
1:00 pm35 °FChilly.7 mph93%30.03 "HgN/A
12:00 pm36 °FChilly.6 mph93%30.04 "HgN/A
11:00 am34 °FChilly.6 mph95%30.04 "HgN/A
10:00 am34 °FChilly.5 mph92%30.05 "HgN/A
9:00 am34 °FChilly.5 mph91%30.05 "HgN/A
8:00 am33 °FChilly.7 mph94%30.06 "HgN/A
7:00 am33 °FChilly.6 mph96%30.07 "HgN/A
6:00 am35 °FChilly.3 mph88%30.08 "HgN/A
5:00 am35 °FChilly.5 mph91%30.08 "HgN/A
4:00 am35 °FChilly.7 mph87%30.09 "HgN/A
Weather by CustomWeather, © 2016

See weather overviewHow to use our weather pages